Regional Weather Roundup
Issued by NWS Newport/Morehead, NC

Current Version | Previous Version | Graphics & Text | Print | Product List | Glossary Off
Versions: 1 2 3 4 5 6 7 8 9 10 11 12 13 14 15 16 17 18 19 20 21 22 23 24 25 26 27 28 29 30 31 32 33 34 35 36 37 38 39 40 41 42 43 44 45 46 47 48 49 50

000
ASUS42 KMHX 160110
RWRMHX
WEATHER ROUNDUP FOR EASTERN NORTH CAROLINA
NATIONAL WEATHER SERVICE NEWPORT/MOREHEAD CITY NC
900 PM EDT MON SEP 15 2014

NOTE: "FAIR" INDICATES FEW OR NO CLOUDS BELOW 12,000 FEET
WITH NO SIGNIFICANT WEATHER AND/OR OBSTRUCTIONS TO VISIBILITY

NCZ015>017-031-032-045>047-102-103-160200-
NORTH COAST

CITY           SKY/WX    TMP DP  RH WIND       PRES   REMARKS
EDENTON        CLOUDY    70  66  88 CALM      30.14S
ELIZABETH CITY CLOUDY    69  61  75 E5        30.14R
KITTY HAWK     CLOUDY    71  59  66 CALM      30.13R
MANTEO         CLOUDY    70  60  69 NE5       30.14R

$$

NCZ045>047-081-094-103-104-160200-
CENTRAL COAST

CITY           SKY/WX    TMP DP  RH WIND       PRES   REMARKS
FRISCO         PTCLDY    68  63  84 NE5       30.13R
SWANQUARTER      N/A     72 N/A N/A NE1       30.09S

$$

NCZ095-097-098-100-101-160200-
SOUTHERN COAST

CITY           SKY/WX    TMP DP  RH WIND       PRES   REMARKS
BEAUFORT       MOCLDY    71  66  84 N3        30.13R
CEDAR ISLAND     N/A     73 N/A N/A NE2G8     30.18R
JACKSONVILLE   CLOUDY    72  68  87 W3        30.14R
NEWPORT        NOT AVBL
PINEY ISLAND   CLOUDY    75  65  70 E5        30.13R
WILMINGTON     MOCLDY    72  68  87 CALM      30.14R


$$

NCZ011>013-027>030-043-044-078>080-089-090>093-098-160200-
COASTAL PLAIN

CITY           SKY/WX    TMP DP  RH WIND       PRES   REMARKS
AHOSKIE        CLOUDY    68  66  92 CALM      30.15R
CLINTON        CLOUDY    72  69  92 CALM      30.15S
ELIZABETHTOWN  CLOUDY    73  68  84 CALM      30.15R
GOLDSBORO      CLOUDY    72  71  98 S2        30.13R
GREENVILLE     MOCLDY    72  68  88 CALM      30.16R
HAVELOCK       CLOUDY    73  66  78 CALM      30.15R
KENANSVILLE    CLOUDY    70  67  90 CALM      30.16R
KINSTON        MOCLDY    72  68  88 CALM      30.15R
NEW BERN       CLOUDY    74  67  78 CALM      30.15R
RICHLANDS      CLOUDY    72  66  83 CALM      30.15R
ROANOKE RAPIDS NOT AVBL
ROCKY MOUNT    CLOUDY    70  67  90 CALM      30.14S
WASHINGTON     CLOUDY    70  67  90 CALM      30.15R
WHITEVILLE     CLOUDY    72  69  90 CALM      30.14S

$$

AMZ130-135-150-152-154-156-158-170-250-252-270-ANZ085-086-088-633-658-670-160200-
MARINE OBSERVATIONS

STATION/POSITION TIME  TEMP    WIND        PRES    WAVE   SWELL
                       AIR SEA DIR/SP/G            HT/PER HT/PER
                 (UTC) (F)     (DEG/KT/KT) (MB)    (FT/S) (FT/S)
CHESAPEAKE LIGHT 0000   69     120/  5/  6 1021.2
BUOY 44014       0100   71 79   50/  8/ 10 1020.1    2/ 7   2/ 7
DUCK             0100   71 76   80/  6/  7 1020.0
2E DUCK          0100                        N/A     2/ 8   2/13
OREGON INLET     0100   71 74   50/  6/  8 1020.4
BUOY 44095       0100      76                N/A     3/ 8
20E OREGON INLET NOT AVBL
HATTERAS CG      0100   72 77   40/  4/  6 1020.7
DIAMOND BUOY     0100   73     360/  8/ 12 1019.9    3/ 8   3/ 8
CAPE LOOKOUT     0000   75      60/  6/  6 1019.8
BEAUFORT LAB     0100   72 79   20/  3/  4 1019.7
30 SE NEW RIVER  0100   77 82   30/  4/  6 1020.4    2/ 7   2/ 7
5 SE WRIGHTSVILL 0000   73 81  100/  4/  6   N/A
BUOY 41002       NOT AVBL
BUOY 41004       0100   80 83  110/  4/  6 1019.6    2/ 5   2/ 5

$$


USA.gov is the U.S. government's official web portal to all federal, state and local government web resources and services.